Regional Weather Roundup
Issued by NWS Newport/Morehead, NC

Home | Current Version | Previous Version | Text Only | Print | Product List | Glossary On
Versions: 1 2 3 4 5 6 7 8 9 10 11 12 13 14 15 16 17 18 19 20 21 22 23 24 25 26 27 28 29 30 31 32 33 34 35 36 37 38 39 40 41 42 43 44 45 46 47 48 49 50
000
ASUS42 KMHX 031125
RWRMHX
WEATHER ROUNDUP FOR EASTERN NORTH CAROLINA
NATIONAL WEATHER SERVICE NEWPORT/MOREHEAD CITY NC
700 AM EDT FRI JUL 03 2015

NOTE: "FAIR" INDICATES FEW OR NO CLOUDS BELOW 12,000 FEET
WITH NO SIGNIFICANT WEATHER AND/OR OBSTRUCTIONS TO VISIBILITY

NCZ015>017-031-032-045>047-102-103-031200-
NORTH COAST

CITY           SKY/WX    TMP DP  RH WIND       PRES   REMARKS
EDENTON        CLOUDY    71  70  97 N5        29.95S FOG
ELIZABETH CITY CLOUDY    73  70  90 N7        29.95R
KITTY HAWK     PTSUNNY   72  71  95 CALM      29.93R FOG
MANTEO         CLOUDY    73  72  95 NE6       29.95R

$$

NCZ045>047-081-094-103-104-031200-
CENTRAL COAST

CITY           SKY/WX    TMP DP  RH WIND       PRES   REMARKS
FRISCO         MOSUNNY   75  70  84 W10       29.95R
SWANQUARTER      N/A     75 N/A N/A W5G17     29.91S

$$

NCZ095-097-098-100-101-031200-
SOUTHERN COAST

CITY           SKY/WX    TMP DP  RH WIND       PRES   REMARKS
BEAUFORT       PTSUNNY   75  69  81 W14       29.97R
CEDAR ISLAND     N/A     77 N/A N/A W8G16     30.00S
JACKSONVILLE   PTSUNNY   72  68  87 SW9       29.98R
PINEY ISLAND   MOSUNNY  N/A N/A N/A W8        29.96R
WILMINGTON     CLOUDY    73  68  84 SW8       29.98R


$$

NCZ011>013-027>030-043-044-078>080-089-090>093-098-031200-
COASTAL PLAIN

CITY           SKY/WX    TMP DP  RH WIND       PRES   REMARKS
AHOSKIE        MOSUNNY   69  67  94 N3        29.97R FOG
CLINTON        CLOUDY    71  69  95 CALM      29.97S
ELIZABETHTOWN  PTCLDY    70  70  98 CALM      29.97S
GOLDSBORO      CLOUDY    72  70  94 SW3       29.95R
GREENVILLE     CLOUDY    72  72 100 W3        29.98R
HAVELOCK       CLOUDY    73  68  84 SW8       29.98R
KENANSVILLE    CLOUDY    71  67  89 CALM      29.98S
KINSTON        PTSUNNY   72  70  94 SW8       29.97R
NEW BERN       CLOUDY    73  68  84 SW5       29.97R
RICHLANDS      CLOUDY    72  64  78 SW6       29.98R
ROCKY MOUNT    CLOUDY    73  70  90 N5        29.96S FOG
WASHINGTON     PTSUNNY   71  69  95 W3        29.96S
WHITEVILLE     PTCLDY    71  68  92 CALM      29.97F

$$

AMZ130-135-150-152-154-156-158-170-250-252-270-ANZ085-086-088-633-658-670-031200-
MARINE OBSERVATIONS

STATION/POSITION TIME  TEMP    WIND        PRES    WAVE   SWELL
                       AIR SEA DIR/SP/G            HT/PER HT/PER
                 (UTC) (F)     (DEG/KT/KT) (MB)    (FT/S) (FT/S)
CHESAPEAKE LIGHT 1100   72      30/ 10/ 12 1014.9
64 E VA BEACH    1050   74 76   20/ 14/ 16 1012.9    5/ 7   3/ 7
DUCK             1100   73 69  350/ 10/ 11 1012.9
2 E DUCK         1011      74                N/A     2/ 7
OREGON INLET     1100   75 81  270/  8/ 11 1013.8
13E OREGON INLT  1100      72                N/A     4/ 8
HATTERAS CG      1100   75 78  230/ 11/ 15 1013.9
DIAMOND BUOY     1050   78 83  270/ 19/ 21 1013.8    6/ 7   3/16
CAPE LOOKOUT     1100   76     250/ 13/ 16 1014.5
BEAUFORT LAB     1100   75 80  260/  4/  8 1014.1
30 SE NEW RVR IN 1008   78 80  270/ 17/ 21 1014.8
27 SE WRIGHTSVLE 1000      80  270/ 12/ 14   N/A
5 SE WRIGHTSVLE  1008   76 79  260/ 12/ 14 1015.0
225 S CAPE HAT   1050   82 80  230/ 17/ 21 1017.4    6/ 5   2/ 9
41 SE CHARLESTON 1050   80 81  230/ 19/ 21 1015.7    5/ 6   2/11

$$


USA.gov is the U.S. government's official web portal to all federal, state and local government web resources and services.